Zurück zum Katalog

SL-8 DEB

AktivLEO
NORAD 3038·DEBRIS·🇷🇺 Russia

Gestartet Mar 15, 1965 von Baikonur Cosmodrome

Loading…

Nächste Überflüge (nächste 24 Stunden)

TLE

AktuellSource: Space-Track

Epoche: Sep 14, 2026, 07:15 UTC

1 03038U 65020EN  26257.30220155  .00001979  00000-0  45661-3 0  9998
2 03038  56.1689   7.8381 0377365 310.3718  46.4886 14.23370587238506

Verfolge SL-8 DEB in Echtzeit mit AllMySat

Download on the App Store